Location: Los Gatos B&B
(42.6926°N, 77.0646°W)
Time: 02:36:56
(UTC-05:00)

Cosmos 2263 Rocket - Visible Passes

Search period start: 18 December 2014 00:00
Search period end: 28 December 2014 00:00
Orbit: 823 x 850 km, 71.0° (Epoch: 17 December)

Date Brightness Start Highest point End Pass type
(mag) Time Alt. Az. Time Alt. Az. Time Alt. Az.
18 Dec 4.6 03:59:16 15° NNE 04:00:24 16° NE 04:03:45 10° E visible
18 Dec 2.2 05:41:00 19° NNW 05:45:13 85° ENE 05:50:55 10° SSE visible
19 Dec 4.7 03:43:37 15° NE 03:43:41 15° NE 03:46:48 10° ENE visible
19 Dec 2.3 05:25:22 27° NNW 05:28:35 79° ENE 05:34:16 10° SSE visible
19 Dec 4.2 18:32:04 10° SE 18:32:39 12° SE 18:32:39 12° SE visible
19 Dec 4.6 20:13:47 10° SW 20:14:25 13° SW 20:14:25 13° SW visible
20 Dec 4.9 03:28:03 13° NE 03:28:03 13° NE 03:29:48 10° ENE visible
20 Dec 2.3 05:09:48 39° N 05:11:57 73° ENE 05:17:37 10° SSE visible
20 Dec 3.8 06:51:50 10° WNW 06:55:11 16° W 06:58:32 10° SW visible
20 Dec 3.9 18:15:44 10° SE 18:17:27 15° ESE 18:17:27 15° ESE visible
20 Dec 4.0 19:57:06 10° SW 19:59:13 24° SW 19:59:13 24° SW visible
21 Dec 5.1 03:12:34 10° ENE 03:12:34 10° ENE 03:12:46 10° ENE visible
21 Dec 2.4 04:54:19 57° NNE 04:55:19 68° ENE 05:00:58 10° SSE visible
21 Dec 3.6 06:36:05 13° WNW 06:38:37 18° W 06:42:15 10° SW visible
21 Dec 3.7 17:59:26 10° SE 18:02:13 16° ESE 18:02:13 16° ESE visible
21 Dec 3.2 19:40:26 10° SSW 19:43:59 40° SW 19:43:59 40° SW visible
22 Dec 2.6 04:38:56 62° ENE 04:38:56 62° ENE 04:44:17 10° SE visible
22 Dec 3.5 06:20:41 18° W 06:22:03 19° W 06:25:56 10° SW visible
22 Dec 3.7 17:43:12 10° SE 17:46:11 15° E 17:46:56 15° E visible
22 Dec 2.4 19:23:47 10° SSW 19:28:42 67° WSW 19:28:42 67° WSW visible
23 Dec 3.2 04:23:36 43° ESE 04:23:36 43° ESE 04:27:36 10° SE visible
23 Dec 3.4 06:05:22 21° W 06:05:28 21° W 06:09:35 10° SSW visible
23 Dec 3.9 17:27:01 10° SE 17:29:37 14° E 17:31:35 11° ENE visible
23 Dec 2.1 19:07:08 10° SSW 19:12:44 83° WNW 19:13:20 71° N visible
23 Dec 5.0 20:54:24 10° W 20:55:06 12° WNW 20:55:06 12° WNW visible
24 Dec 3.9 04:08:20 27° SE 04:08:20 27° SE 04:10:55 10° SE visible
24 Dec 3.5 05:50:06 21° WSW 05:50:06 21° WSW 05:53:12 10° SSW visible
24 Dec 4.0 17:10:56 10° ESE 17:13:03 12° E 17:15:11 10° ENE visible
24 Dec 2.1 18:50:30 10° SSW 18:56:06 89° WNW 18:57:55 45° NNE visible
24 Dec 4.7 20:37:27 10° W 20:39:40 15° WNW 20:39:40 15° WNW visible
25 Dec 4.6 03:53:07 16° SE 03:53:07 16° SE 03:54:13 10° SE visible
25 Dec 3.8 05:34:53 18° SW 05:34:53 18° SW 05:36:48 10° SSW visible
25 Dec 2.1 18:33:53 10° SSW 18:39:28 85° ESE 18:42:25 30° NNE visible
25 Dec 4.5 20:20:31 10° W 20:24:10 17° NW 20:24:10 17° NW visible
26 Dec 4.3 05:19:42 13° SSW 05:19:42 13° SSW 05:20:23 10° SSW visible
26 Dec 2.1 18:17:16 10° SSW 18:22:50 79° ESE 18:26:50 20° NNE visible
26 Dec 4.4 20:03:37 10° W 20:07:28 19° NW 20:08:34 18° NNW visible
27 Dec 2.1 18:00:40 10° SSW 18:06:13 73° ESE 18:11:10 14° NNE visible
27 Dec 4.3 19:46:44 10° W 19:50:46 20° NW 19:52:54 16° NNW visible
